Time,TemperatureF,DewpointF,PressureIn,WindDirection,WindDirectionDegrees,WindSpeedMPH,WindSpeedGustMPH,Humidity,HourlyPrecipIn,Conditions,Clouds,dailyrainin,SoftwareType,DateUTC
2013-04-14 00:00:00,36.0,30.4,29.99,WSW,258,0.0,0.0,80,0.00,,,0.01,VWS V14.01,2013-04-14 04:00:00,
2013-04-14 00:05:00,35.9,30.6,30.00,WSW,258,0.0,0.0,81,0.00,,,0.00,VWS V14.01,2013-04-14 04:05:00,
2013-04-14 00:10:00,35.8,30.5,30.00,WSW,258,0.0,0.0,81,0.00,,,0.00,VWS V14.01,2013-04-14 04:10:00,
2013-04-14 00:15:00,35.7,30.5,30.00,WSW,258,0.0,0.0,81,0.00,,,0.00,VWS V14.01,2013-04-14 04:15:00,
2013-04-14 00:20:00,35.7,30.8,30.00,WSW,258,0.0,0.0,82,0.00,,,0.00,VWS V14.01,2013-04-14 04:20:00,
2013-04-14 00:25:00,35.5,30.6,30.00,WSW,258,0.0,0.0,82,0.00,,,0.00,VWS V14.01,2013-04-14 04:25:00,
2013-04-14 00:30:00,35.3,30.7,30.01,WSW,258,0.0,0.0,83,0.00,,,0.00,VWS V14.01,2013-04-14 04:30:00,
2013-04-14 00:35:00,35.1,30.8,30.00,WSW,258,0.0,0.0,84,0.00,,,0.00,VWS V14.01,2013-04-14 04:35:00,
2013-04-14 00:40:00,35.0,31.0,30.01,WSW,258,0.0,0.0,85,0.00,,,0.00,VWS V14.01,2013-04-14 04:40:00,
2013-04-14 00:45:00,35.0,31.2,30.01,WSW,258,0.0,0.0,86,0.00,,,0.00,VWS V14.01,2013-04-14 04:45:00,
2013-04-14 00:50:00,35.0,31.5,30.00,WSW,258,0.0,0.0,87,0.00,,,0.00,VWS V14.01,2013-04-14 04:50:00,
2013-04-14 00:55:00,35.0,31.8,30.00,WSW,258,0.0,0.0,88,0.00,,,0.00,VWS V14.01,2013-04-14 04:55:00,
2013-04-14 01:00:00,35.1,31.9,30.00,WSW,258,0.0,0.0,88,0.00,,,0.00,VWS V14.01,2013-04-14 05:00:00,
2013-04-14 01:05:00,35.2,32.3,30.01,WSW,258,0.0,0.0,89,0.00,,,0.00,VWS V14.01,2013-04-14 05:05:00,
2013-04-14 01:10:00,35.3,32.4,30.00,WSW,258,0.0,0.0,89,0.00,,,0.00,VWS V14.01,2013-04-14 05:10:00,
2013-04-14 01:15:00,35.3,32.4,30.00,WSW,258,0.0,0.0,89,0.00,,,0.00,VWS V14.01,2013-04-14 05:15:00,
2013-04-14 01:20:00,35.3,32.4,30.01,WSW,258,0.0,0.0,89,0.00,,,0.00,VWS V14.01,2013-04-14 05:20:00,
2013-04-14 01:25:00,35.3,32.4,30.01,WSW,258,0.0,0.0,89,0.00,,,0.00,VWS V14.01,2013-04-14 05:25:00,
2013-04-14 01:29:00,35.4,32.8,30.01,WSW,258,0.0,0.0,90,0.00,,,0.00,VWS V14.01,2013-04-14 05:29:00,
2013-04-14 01:34:00,35.4,32.8,30.01,WSW,258,0.0,0.0,90,0.00,,,0.00,VWS V14.01,2013-04-14 05:34:00,
2013-04-14 01:39:00,35.5,32.9,30.01,WSW,258,0.0,0.0,90,0.00,,,0.00,VWS V14.01,2013-04-14 05:39:00,
2013-04-14 01:44:00,35.5,32.9,30.01,WSW,258,0.0,0.0,90,0.00,,,0.00,VWS V14.01,2013-04-14 05:44:00,
2013-04-14 01:49:00,35.4,32.8,30.02,WSW,258,0.0,0.0,90,0.00,,,0.00,VWS V14.01,2013-04-14 05:49:00,
2013-04-14 01:54:00,35.4,32.8,30.02,WSW,258,0.0,0.0,90,0.00,,,0.00,VWS V14.01,2013-04-14 05:54:00,
2013-04-14 01:59:00,35.4,32.8,30.02,WSW,258,0.0,0.0,90,0.00,,,0.00,VWS V14.01,2013-04-14 05:59:00,
2013-04-14 02:04:00,35.4,32.8,30.02,WSW,258,0.0,0.0,90,0.00,,,0.00,VWS V14.01,2013-04-14 06:04:00,
2013-04-14 02:09:00,35.5,32.9,30.02,WSW,258,0.0,0.0,90,0.00,,,0.00,VWS V14.01,2013-04-14 06:09:00,
2013-04-14 02:14:00,35.4,32.8,30.02,WSW,258,0.0,0.0,90,0.00,,,0.00,VWS V14.01,2013-04-14 06:14:00,
2013-04-14 02:19:00,35.4,32.8,30.02,WSW,258,0.0,0.0,90,0.00,,,0.00,VWS V14.01,2013-04-14 06:19:00,
2013-04-14 02:24:00,35.4,32.8,30.02,WSW,258,0.0,0.0,90,0.00,,,0.00,VWS V14.01,2013-04-14 06:24:00,
2013-04-14 02:29:00,35.5,32.9,30.02,WSW,258,0.0,0.0,90,0.00,,,0.00,VWS V14.01,2013-04-14 06:29:00,
2013-04-14 02:34:00,35.5,32.9,30.03,WSW,258,0.0,0.0,90,0.00,,,0.00,VWS V14.01,2013-04-14 06:34:00,
2013-04-14 02:39:00,35.5,32.6,30.03,WSW,258,0.0,0.0,89,0.00,,,0.00,VWS V14.01,2013-04-14 06:39:00,
2013-04-14 02:44:00,35.6,32.7,30.03,WSW,258,0.0,0.0,89,0.00,,,0.00,VWS V14.01,2013-04-14 06:44:00,
2013-04-14 02:49:00,35.7,33.1,30.03,WSW,258,0.0,0.0,90,0.00,,,0.00,VWS V14.01,2013-04-14 06:49:00,
2013-04-14 02:54:00,35.7,33.1,30.02,WSW,258,0.0,0.0,90,0.00,,,0.00,VWS V14.01,2013-04-14 06:54:00,
2013-04-14 02:59:00,35.7,33.1,30.02,WSW,258,0.0,0.0,90,0.00,,,0.00,VWS V14.01,2013-04-14 06:59:00,
2013-04-14 03:04:00,35.7,32.8,30.02,WSW,258,0.0,0.0,89,0.00,,,0.00,VWS V14.01,2013-04-14 07:04:00,
2013-04-14 03:09:00,35.7,32.8,30.02,WSW,258,0.0,0.0,89,0.00,,,0.00,VWS V14.01,2013-04-14 07:09:00,
2013-04-14 03:14:00,35.7,32.8,30.01,WSW,258,0.0,0.0,89,0.00,,,0.00,VWS V14.01,2013-04-14 07:14:00,
2013-04-14 03:19:00,35.7,32.8,30.01,WSW,258,0.0,0.0,89,0.00,,,0.00,VWS V14.01,2013-04-14 07:19:00,
2013-04-14 03:24:00,35.7,32.8,30.01,WSW,258,0.0,0.0,89,0.00,,,0.00,VWS V14.01,2013-04-14 07:24:00,
2013-04-14 03:29:00,35.8,32.9,30.02,WSW,258,0.0,0.0,89,0.00,,,0.00,VWS V14.01,2013-04-14 07:29:00,
2013-04-14 03:34:00,35.9,33.0,30.02,WSW,258,0.0,0.0,89,0.00,,,0.00,VWS V14.01,2013-04-14 07:34:00,
2013-04-14 03:39:00,36.1,33.2,30.02,WSW,258,0.0,0.0,89,0.00,,,0.00,VWS V14.01,2013-04-14 07:39:00,
2013-04-14 03:44:00,36.1,33.2,30.02,WSW,258,0.0,0.0,89,0.00,,,0.00,VWS V14.01,2013-04-14 07:44:00,
2013-04-14 03:49:00,36.1,33.2,30.02,WSW,258,0.0,0.0,89,0.00,,,0.00,VWS V14.01,2013-04-14 07:49:00,
2013-04-14 03:54:00,36.1,33.2,30.02,WSW,258,0.0,0.0,89,0.00,,,0.00,VWS V14.01,2013-04-14 07:54:00,
2013-04-14 03:59:00,36.2,33.3,30.02,WSW,258,0.0,0.0,89,0.00,,,0.00,VWS V14.01,2013-04-14 07:59:00,
2013-04-14 04:04:00,36.1,33.2,30.02,WSW,258,0.0,0.0,89,0.00,,,0.00,VWS V14.01,2013-04-14 08:04:00,
2013-04-14 04:09:00,36.1,33.2,30.02,WSW,258,0.0,0.0,89,0.00,,,0.00,VWS V14.01,2013-04-14 08:09:00,
2013-04-14 04:14:00,36.1,33.2,30.02,WSW,258,0.0,0.0,89,0.00,,,0.00,VWS V14.01,2013-04-14 08:14:00,
2013-04-14 04:19:00,36.0,33.1,30.02,WSW,258,0.0,0.0,89,0.00,,,0.00,VWS V14.01,2013-04-14 08:19:00,
2013-04-14 04:24:00,36.1,33.2,30.02,WSW,258,0.0,0.0,89,0.00,,,0.00,VWS V14.01,2013-04-14 08:24:00,
2013-04-14 04:29:00,36.1,33.2,30.02,WSW,258,0.0,0.0,89,0.00,,,0.00,VWS V14.01,2013-04-14 08:29:00,
2013-04-14 04:34:00,36.2,33.3,30.02,WSW,258,0.0,0.0,89,0.00,,,0.00,VWS V14.01,2013-04-14 08:34:00,
2013-04-14 04:39:00,36.2,33.3,30.02,WSW,258,0.0,1.0,89,0.00,,,0.00,VWS V14.01,2013-04-14 08:39:00,
2013-04-14 04:44:00,36.4,33.5,30.03,WSW,258,0.0,1.0,89,0.00,,,0.00,VWS V14.01,2013-04-14 08:44:00,
2013-04-14 04:49:00,36.5,33.6,30.03,WSW,258,0.0,1.0,89,0.00,,,0.00,VWS V14.01,2013-04-14 08:49:00,
2013-04-14 04:54:00,36.5,33.6,30.03,WSW,258,0.0,0.0,89,0.00,,,0.00,VWS V14.01,2013-04-14 08:54:00,
2013-04-14 04:59:00,36.5,33.6,30.03,WSW,258,0.0,0.0,89,0.00,,,0.00,VWS V14.01,2013-04-14 08:59:00,
2013-04-14 05:04:00,36.5,33.6,30.03,WSW,258,0.0,0.0,89,0.00,,,0.00,VWS V14.01,2013-04-14 09:04:00,
2013-04-14 05:09:00,36.5,33.6,30.03,WSW,258,0.0,0.0,89,0.00,,,0.00,VWS V14.01,2013-04-14 09:09:00,
2013-04-14 05:14:00,36.5,33.3,30.03,WSW,258,0.0,0.0,88,0.00,,,0.00,VWS V14.01,2013-04-14 09:14:00,
2013-04-14 05:19:00,36.6,33.4,30.03,WSW,258,0.0,0.0,88,0.00,,,0.00,VWS V14.01,2013-04-14 09:19:00,
2013-04-14 05:24:00,36.6,33.4,30.03,WSW,258,0.0,0.0,88,0.00,,,0.00,VWS V14.01,2013-04-14 09:24:00,
2013-04-14 05:29:00,36.6,33.4,30.02,WSW,258,0.0,0.0,88,0.00,,,0.00,VWS V14.01,2013-04-14 09:29:00,
2013-04-14 05:34:00,36.6,33.1,30.03,WSW,258,0.0,0.0,87,0.00,,,0.00,VWS V14.01,2013-04-14 09:34:00,
2013-04-14 05:39:00,36.6,33.1,30.03,WSW,258,0.0,0.0,87,0.00,,,0.00,VWS V14.01,2013-04-14 09:39:00,
2013-04-14 05:44:00,36.6,32.8,30.04,WSW,258,0.0,0.0,86,0.00,,,0.00,VWS V14.01,2013-04-14 09:44:00,
2013-04-14 05:49:00,36.6,32.8,30.04,WSW,258,0.0,0.0,86,0.00,,,0.00,VWS V14.01,2013-04-14 09:49:00,
2013-04-14 05:54:00,36.7,32.6,30.04,WSW,258,0.0,0.0,85,0.00,,,0.00,VWS V14.01,2013-04-14 09:54:00,
2013-04-14 05:59:00,36.8,32.7,30.04,WSW,258,0.0,0.0,85,0.00,,,0.00,VWS V14.01,2013-04-14 09:59:00,
2013-04-14 06:04:00,36.9,32.8,30.05,WSW,258,0.0,0.0,85,0.00,,,0.00,VWS V14.01,2013-04-14 10:04:00,
2013-04-14 06:09:00,36.9,32.8,30.05,WSW,258,0.0,0.0,85,0.00,,,0.00,VWS V14.01,2013-04-14 10:09:00,
2013-04-14 06:14:00,36.9,32.5,30.05,WSW,258,0.0,0.0,84,0.00,,,0.00,VWS V14.01,2013-04-14 10:14:00,
2013-04-14 06:19:00,36.9,32.5,30.04,WSW,258,0.0,0.0,84,0.00,,,0.00,VWS V14.01,2013-04-14 10:19:00,
2013-04-14 06:24:00,36.9,32.5,30.05,WSW,258,0.0,0.0,84,0.00,,,0.00,VWS V14.01,2013-04-14 10:24:00,
2013-04-14 06:29:00,37.0,32.6,30.05,WSW,258,0.0,0.0,84,0.00,,,0.00,VWS V14.01,2013-04-14 10:29:00,
2013-04-14 06:34:00,37.0,32.6,30.04,WSW,258,0.0,0.0,84,0.00,,,0.00,VWS V14.01,2013-04-14 10:34:00,
2013-04-14 06:39:00,37.0,32.6,30.04,WSW,258,0.0,0.0,84,0.00,,,0.00,VWS V14.01,2013-04-14 10:39:00,
2013-04-14 06:44:00,37.0,32.6,30.04,WSW,258,0.0,0.0,84,0.00,,,0.00,VWS V14.01,2013-04-14 10:44:00,
2013-04-14 06:49:00,37.0,32.9,30.04,WSW,258,0.0,0.0,85,0.00,,,0.00,VWS V14.01,2013-04-14 10:49:00,
2013-04-14 06:54:00,37.0,32.6,30.04,WSW,258,0.0,0.0,84,0.00,,,0.00,VWS V14.01,2013-04-14 10:54:00,
2013-04-14 06:59:00,37.0,32.3,30.04,WSW,258,0.0,0.0,83,0.00,,,0.00,VWS V14.01,2013-04-14 10:59:00,
2013-04-14 07:04:00,37.0,32.6,30.04,WSW,258,0.0,0.0,84,0.00,,,0.00,VWS V14.01,2013-04-14 11:04:00,
2013-04-14 07:09:00,37.0,32.3,30.04,WSW,258,0.0,0.0,83,0.00,,,0.00,VWS V14.01,2013-04-14 11:09:00,
2013-04-14 07:14:00,37.1,32.1,30.04,WSW,258,0.0,0.0,82,0.00,,,0.00,VWS V14.01,2013-04-14 11:14:00,
2013-04-14 07:19:00,37.2,32.5,30.04,WSW,258,0.0,0.0,83,0.00,,,0.00,VWS V14.01,2013-04-14 11:19:00,
2013-04-14 07:24:00,37.2,32.2,30.04,WSW,258,0.0,0.0,82,0.00,,,0.00,VWS V14.01,2013-04-14 11:24:00,
2013-04-14 07:29:00,37.3,32.3,30.04,WSW,258,0.0,0.0,82,0.00,,,0.00,VWS V14.01,2013-04-14 11:29:00,
2013-04-14 07:34:00,37.3,32.0,30.04,WSW,258,0.0,2.0,81,0.00,,,0.00,VWS V14.01,2013-04-14 11:34:00,
2013-04-14 07:39:00,37.4,32.1,30.03,WSW,258,0.0,2.0,81,0.00,,,0.00,VWS V14.01,2013-04-14 11:39:00,
2013-04-14 07:44:00,37.5,31.9,30.03,NNE,28,0.0,3.0,80,0.00,,,0.00,VWS V14.01,2013-04-14 11:44:00,
2013-04-14 07:49:00,37.6,31.7,30.03,NNE,28,0.0,3.0,79,0.00,,,0.00,VWS V14.01,2013-04-14 11:49:00,
2013-04-14 07:54:00,37.7,31.8,30.03,NNE,28,0.0,1.0,79,0.00,,,0.00,VWS V14.01,2013-04-14 11:54:00,
2013-04-14 07:59:00,37.8,31.9,30.02,NE,37,2.0,3.0,79,0.00,,,0.00,VWS V14.01,2013-04-14 11:59:00,
2013-04-14 08:04:00,37.9,31.7,30.02,NE,37,0.0,3.0,78,0.00,,,0.00,VWS V14.01,2013-04-14 12:04:00,
2013-04-14 08:09:00,38.0,31.8,30.02,East,85,0.0,3.0,78,0.00,,,0.00,VWS V14.01,2013-04-14 12:09:00,
2013-04-14 08:14:00,38.2,31.6,30.02,East,85,0.0,3.0,77,0.00,,,0.00,VWS V14.01,2013-04-14 12:14:00,
2013-04-14 08:19:00,38.3,31.4,30.02,East,84,0.0,2.0,76,0.00,,,0.00,VWS V14.01,2013-04-14 12:19:00,
2013-04-14 08:24:00,38.5,31.6,30.02,East,84,0.0,2.0,76,0.00,,,0.00,VWS V14.01,2013-04-14 12:24:00,
2013-04-14 08:29:00,38.6,31.4,30.02,ENE,67,0.0,5.0,75,0.00,,,0.00,VWS V14.01,2013-04-14 12:29:00,
2013-04-14 08:34:00,38.8,31.2,30.03,NE,40,0.0,5.0,74,0.00,,,0.00,VWS V14.01,2013-04-14 12:34:00,
2013-04-14 08:39:00,38.8,31.2,30.02,ENE,67,0.0,5.0,74,0.00,,,0.00,VWS V14.01,2013-04-14 12:39:00,
2013-04-14 08:44:00,39.0,31.1,30.03,ENE,61,3.0,5.0,73,0.00,,,0.00,VWS V14.01,2013-04-14 12:44:00,
2013-04-14 08:49:00,39.2,31.3,30.03,SSE,165,0.0,4.0,73,0.00,,,0.00,VWS V14.01,2013-04-14 12:49:00,
2013-04-14 08:54:00,39.4,31.5,30.03,ENE,78,1.0,4.0,73,0.00,,,0.00,VWS V14.01,2013-04-14 12:54:00,
2013-04-14 08:59:00,39.7,31.4,30.02,ENE,76,2.0,5.0,72,0.00,,,0.00,VWS V14.01,2013-04-14 12:59:00,
2013-04-14 09:04:00,40.0,31.4,30.02,NE,51,0.0,5.0,71,0.00,,,0.00,VWS V14.01,2013-04-14 13:04:00,
2013-04-14 09:09:00,40.4,31.8,30.02,NE,46,3.0,4.0,71,0.00,,,0.00,VWS V14.01,2013-04-14 13:09:00,
2013-04-14 09:14:00,40.6,31.6,30.01,ENE,74,0.0,4.0,70,0.00,,,0.00,VWS V14.01,2013-04-14 13:14:00,
2013-04-14 09:19:00,41.1,32.4,30.01,NE,53,0.0,4.0,71,0.00,,,0.00,VWS V14.01,2013-04-14 13:19:00,
2013-04-14 09:24:00,41.5,31.7,30.01,NE,40,0.0,4.0,68,0.00,,,0.00,VWS V14.01,2013-04-14 13:24:00,
2013-04-14 09:29:00,41.8,32.4,30.01,ENE,70,2.0,4.0,69,0.00,,,0.00,VWS V14.01,2013-04-14 13:29:00,
2013-04-14 09:34:00,41.9,31.8,30.02,WSW,241,0.0,5.0,67,0.00,,,0.00,VWS V14.01,2013-04-14 13:34:00,
2013-04-14 09:39:00,41.8,32.0,30.03,ENE,71,2.0,5.0,68,0.00,,,0.00,VWS V14.01,2013-04-14 13:39:00,
2013-04-14 09:44:00,41.7,31.9,30.02,East,92,2.0,5.0,68,0.00,,,0.00,VWS V14.01,2013-04-14 13:44:00,
2013-04-14 09:49:00,41.9,32.1,30.02,NE,54,1.0,4.0,68,0.00,,,0.00,VWS V14.01,2013-04-14 13:49:00,
2013-04-14 09:54:00,42.0,31.9,30.02,East,100,1.0,6.0,67,0.00,,,0.00,VWS V14.01,2013-04-14 13:54:00,
2013-04-14 09:59:00,42.0,32.2,30.03,East,90,0.0,6.0,68,0.00,,,0.00,VWS V14.01,2013-04-14 13:59:00,
2013-04-14 10:04:00,42.0,31.9,30.03,SSW,200,1.0,6.0,67,0.00,,,0.00,VWS V14.01,2013-04-14 14:04:00,
2013-04-14 10:09:00,41.7,31.6,30.02,ESE,105,1.0,7.0,67,0.00,,,0.00,VWS V14.01,2013-04-14 14:09:00,
2013-04-14 10:14:00,41.5,31.7,30.02,SE,137,0.0,7.0,68,0.00,,,0.00,VWS V14.01,2013-04-14 14:14:00,
2013-04-14 10:19:00,41.3,31.5,30.02,East,91,0.0,6.0,68,0.00,,,0.00,VWS V14.01,2013-04-14 14:19:00,
2013-04-14 10:23:00,41.3,31.9,30.03,ESE,102,0.0,6.0,69,0.00,,,0.00,VWS V14.01,2013-04-14 14:23:00,
2013-04-14 10:28:00,41.2,31.8,30.03,SE,132,1.0,6.0,69,0.00,,,0.00,VWS V14.01,2013-04-14 14:28:00,
2013-04-14 10:33:00,41.2,32.2,30.03,ESE,107,0.0,4.0,70,0.00,,,0.00,VWS V14.01,2013-04-14 14:33:00,
2013-04-14 10:38:00,41.3,32.3,30.03,ENE,69,0.0,4.0,70,0.00,,,0.00,VWS V14.01,2013-04-14 14:38:00,
2013-04-14 10:43:00,41.3,32.3,30.03,South,174,0.0,4.0,70,0.00,,,0.00,VWS V14.01,2013-04-14 14:43:00,
2013-04-14 10:48:00,41.3,32.3,30.03,SSW,202,3.0,4.0,70,0.00,,,0.00,VWS V14.01,2013-04-14 14:48:00,
2013-04-14 10:53:00,41.4,32.4,30.03,ENE,71,0.0,3.0,70,0.00,,,0.00,VWS V14.01,2013-04-14 14:53:00,
2013-04-14 10:58:00,41.5,32.1,30.02,ENE,68,0.0,6.0,69,0.00,,,0.00,VWS V14.01,2013-04-14 14:58:00,
2013-04-14 11:03:00,41.6,32.6,30.02,East,95,1.0,6.0,70,0.00,,,0.00,VWS V14.01,2013-04-14 15:03:00,
2013-04-14 11:08:00,41.7,32.7,30.02,NNE,29,2.0,6.0,70,0.00,,,0.00,VWS V14.01,2013-04-14 15:08:00,
2013-04-14 11:13:00,41.8,32.8,30.02,SSE,157,0.0,6.0,70,0.00,,,0.00,VWS V14.01,2013-04-14 15:13:00,
2013-04-14 11:18:00,42.0,33.3,30.02,East,88,3.0,6.0,71,0.00,,,0.00,VWS V14.01,2013-04-14 15:18:00,
2013-04-14 11:23:00,42.2,33.5,30.02,SSE,159,1.0,6.0,71,0.00,,,0.00,VWS V14.01,2013-04-14 15:23:00,
2013-04-14 11:28:00,42.5,34.1,30.02,NE,40,4.0,6.0,72,0.00,,,0.00,VWS V14.01,2013-04-14 15:28:00,
2013-04-14 11:33:00,43.1,34.7,30.01,WSW,241,0.0,7.0,72,0.00,,,0.00,VWS V14.01,2013-04-14 15:33:00,
2013-04-14 11:38:00,43.9,35.1,30.01,NE,36,0.0,7.0,71,0.00,,,0.00,VWS V14.01,2013-04-14 15:38:00,
2013-04-14 11:43:00,44.9,36.4,30.01,NE,41,4.0,5.0,72,0.00,,,0.00,VWS V14.01,2013-04-14 15:43:00,
2013-04-14 11:48:00,45.6,37.1,30.00,NE,41,1.0,4.0,72,0.00,,,0.00,VWS V14.01,2013-04-14 15:48:00,
2013-04-14 11:53:00,46.6,37.0,30.00,SSE,163,6.0,6.0,69,0.00,,,0.00,VWS V14.01,2013-04-14 15:53:00,
2013-04-14 11:58:00,46.9,37.6,30.00,ESE,103,7.0,7.0,70,0.00,,,0.00,VWS V14.01,2013-04-14 15:58:00,
2013-04-14 12:03:00,46.9,36.9,30.00,SE,128,4.0,7.0,68,0.00,,,0.00,VWS V14.01,2013-04-14 16:03:00,
2013-04-14 12:08:00,46.8,37.5,29.99,SW,228,4.0,7.0,70,0.00,,,0.00,VWS V14.01,2013-04-14 16:08:00,
2013-04-14 12:13:00,47.9,37.9,29.99,SE,128,2.0,7.0,68,0.00,,,0.00,VWS V14.01,2013-04-14 16:13:00,
2013-04-14 12:18:00,47.7,37.3,29.99,NE,44,2.0,7.0,67,0.00,,,0.00,VWS V14.01,2013-04-14 16:18:00,
2013-04-14 12:23:00,47.8,37.4,29.98,North,360,1.0,6.0,67,0.00,,,0.00,VWS V14.01,2013-04-14 16:23:00,
2013-04-14 12:28:00,47.6,38.0,29.98,East,94,1.0,6.0,69,0.00,,,0.00,VWS V14.01,2013-04-14 16:28:00,
2013-04-14 12:33:00,48.2,38.5,29.98,NE,39,3.0,6.0,69,0.00,,,0.00,VWS V14.01,2013-04-14 16:33:00,
2013-04-14 12:38:00,49.0,37.8,29.97,SSE,160,6.0,7.0,65,0.00,,,0.00,VWS V14.01,2013-04-14 16:38:00,
2013-04-14 12:43:00,50.1,40.0,29.97,ESE,107,4.0,8.0,68,0.00,,,0.00,VWS V14.01,2013-04-14 16:43:00,
2013-04-14 12:48:00,50.3,39.0,29.97,SE,141,2.0,8.0,65,0.00,,,0.00,VWS V14.01,2013-04-14 16:48:00,
2013-04-14 12:53:00,50.2,39.7,29.97,SE,146,1.0,8.0,67,0.00,,,0.00,VWS V14.01,2013-04-14 16:53:00,
2013-04-14 12:58:00,51.2,39.8,29.96,SW,227,4.0,9.0,65,0.00,,,0.00,VWS V14.01,2013-04-14 16:58:00,
2013-04-14 13:03:00,51.2,38.6,29.96,East,86,2.0,12.0,62,0.00,,,0.00,VWS V14.01,2013-04-14 17:03:00,
2013-04-14 13:08:00,50.7,39.4,29.96,NNE,16,0.0,12.0,65,0.00,,,0.00,VWS V14.01,2013-04-14 17:08:00,
2013-04-14 13:13:00,51.4,40.0,29.95,ENE,74,2.0,12.0,65,0.00,,,0.00,VWS V14.01,2013-04-14 17:13:00,
2013-04-14 13:18:00,52.3,39.7,29.95,ESE,123,2.0,8.0,62,0.00,,,0.00,VWS V14.01,2013-04-14 17:18:00,
2013-04-14 13:23:00,52.3,40.9,29.94,NNE,22,0.0,8.0,65,0.00,,,0.00,VWS V14.01,2013-04-14 17:23:00,
2013-04-14 13:28:00,53.1,41.3,29.94,SE,146,6.0,8.0,64,0.00,,,0.00,VWS V14.01,2013-04-14 17:28:00,
2013-04-14 13:33:00,53.6,42.5,29.93,WNW,300,3.0,8.0,66,0.00,,,0.00,VWS V14.01,2013-04-14 17:33:00,
2013-04-14 13:38:00,53.9,40.8,29.93,East,96,2.0,9.0,61,0.00,,,0.00,VWS V14.01,2013-04-14 17:38:00,
2013-04-14 13:43:00,53.8,41.9,29.92,NNE,27,0.0,9.0,64,0.00,,,0.00,VWS V14.01,2013-04-14 17:43:00,
2013-04-14 13:48:00,54.3,41.6,29.92,SE,131,3.0,9.0,62,0.00,,,0.00,VWS V14.01,2013-04-14 17:48:00,
2013-04-14 13:53:00,54.1,41.4,29.92,ENE,65,2.0,8.0,62,0.00,,,0.00,VWS V14.01,2013-04-14 17:53:00,
2013-04-14 13:58:00,53.9,40.8,29.92,South,190,1.0,7.0,61,0.00,,,0.00,VWS V14.01,2013-04-14 17:58:00,
2013-04-14 14:03:00,54.7,42.0,29.91,NNE,19,4.0,11.0,62,0.00,,,0.00,VWS V14.01,2013-04-14 18:03:00,
2013-04-14 14:08:00,54.7,41.1,29.91,East,86,6.0,11.0,60,0.00,,,0.00,VWS V14.01,2013-04-14 18:08:00,
2013-04-14 14:13:00,55.4,42.2,29.91,NE,51,0.0,11.0,61,0.00,,,0.00,VWS V14.01,2013-04-14 18:13:00,
2013-04-14 14:18:00,55.8,42.1,29.91,SSE,147,1.0,8.0,60,0.00,,,0.00,VWS V14.01,2013-04-14 18:18:00,
2013-04-14 14:23:00,56.4,43.1,29.91,West,274,0.0,7.0,61,0.00,,,0.00,VWS V14.01,2013-04-14 18:23:00,
2013-04-14 14:28:00,57.3,44.0,29.91,NNE,22,1.0,9.0,61,0.00,,,0.00,VWS V14.01,2013-04-14 18:28:00,
2013-04-14 14:33:00,57.8,43.6,29.91,North,355,3.0,9.0,59,0.00,,,0.00,VWS V14.01,2013-04-14 18:33:00,
2013-04-14 14:38:00,57.4,42.8,29.91,East,80,3.0,9.0,58,0.00,,,0.00,VWS V14.01,2013-04-14 18:38:00,
2013-04-14 14:43:00,57.7,42.6,29.91,South,177,0.0,9.0,57,0.00,,,0.00,VWS V14.01,2013-04-14 18:43:00,
2013-04-14 14:48:00,58.5,46.0,29.91,South,182,4.0,9.0,63,0.00,,,0.00,VWS V14.01,2013-04-14 18:48:00,
2013-04-14 14:53:00,58.5,43.3,29.90,South,183,3.0,11.0,57,0.00,,,0.00,VWS V14.01,2013-04-14 18:53:00,
2013-04-14 14:58:00,58.7,44.0,29.90,NE,46,2.0,11.0,58,0.00,,,0.00,VWS V14.01,2013-04-14 18:58:00,
2013-04-14 15:03:00,58.5,43.8,29.90,South,185,0.0,8.0,58,0.00,,,0.00,VWS V14.01,2013-04-14 19:03:00,
2013-04-14 15:08:00,59.1,44.8,29.89,SSW,211,2.0,9.0,59,0.00,,,0.00,VWS V14.01,2013-04-14 19:08:00,
2013-04-14 15:13:00,59.8,44.5,29.89,SE,146,3.0,9.0,57,0.00,,,0.00,VWS V14.01,2013-04-14 19:13:00,
2013-04-14 15:18:00,59.6,44.8,29.89,East,94,2.0,7.0,58,0.00,,,0.00,VWS V14.01,2013-04-14 19:18:00,
2013-04-14 15:23:00,60.1,44.8,29.88,ESE,112,1.0,7.0,57,0.00,,,0.00,VWS V14.01,2013-04-14 19:23:00,
2013-04-14 15:28:00,60.1,44.8,29.88,SE,128,3.0,6.0,57,0.00,,,0.00,VWS V14.01,2013-04-14 19:28:00,
2013-04-14 15:33:00,60.2,45.4,29.88,SSW,212,1.0,8.0,58,0.00,,,0.00,VWS V14.01,2013-04-14 19:33:00,
2013-04-14 15:38:00,61.2,45.4,29.88,South,170,3.0,8.0,56,0.00,,,0.00,VWS V14.01,2013-04-14 19:38:00,
2013-04-14 15:43:00,60.6,44.4,29.87,NE,43,4.0,7.0,55,0.00,,,0.00,VWS V14.01,2013-04-14 19:43:00,
2013-04-14 15:48:00,60.9,46.0,29.87,SSE,150,1.0,7.0,58,0.00,,,0.00,VWS V14.01,2013-04-14 19:48:00,
2013-04-14 15:53:00,62.1,46.7,29.87,East,86,3.0,7.0,57,0.00,,,0.00,VWS V14.01,2013-04-14 19:53:00,
2013-04-14 15:58:00,61.9,46.0,29.87,South,176,5.0,10.0,56,0.00,,,0.00,VWS V14.01,2013-04-14 19:58:00,
2013-04-14 16:03:00,61.6,45.8,29.87,South,180,4.0,10.0,56,0.00,,,0.00,VWS V14.01,2013-04-14 20:03:00,
2013-04-14 16:08:00,61.6,46.2,29.86,South,174,1.0,10.0,57,0.00,,,0.00,VWS V14.01,2013-04-14 20:08:00,
2013-04-14 16:13:00,61.7,45.9,29.86,SSE,158,3.0,10.0,56,0.00,,,0.00,VWS V14.01,2013-04-14 20:13:00,
2013-04-14 16:18:00,62.3,46.0,29.85,East,80,0.0,9.0,55,0.00,,,0.00,VWS V14.01,2013-04-14 20:18:00,
2013-04-14 16:23:00,62.0,46.6,29.85,South,171,2.0,7.0,57,0.00,,,0.00,VWS V14.01,2013-04-14 20:23:00,
2013-04-14 16:28:00,61.8,45.5,29.85,ESE,119,3.0,9.0,55,0.00,,,0.00,VWS V14.01,2013-04-14 20:28:00,
2013-04-14 16:33:00,61.8,46.0,29.84,SW,223,1.0,9.0,56,0.00,,,0.00,VWS V14.01,2013-04-14 20:33:00,
2013-04-14 16:38:00,62.0,46.6,29.84,SW,225,4.0,9.0,57,0.00,,,0.00,VWS V14.01,2013-04-14 20:38:00,
2013-04-14 16:43:00,61.9,45.6,29.84,WSW,240,2.0,10.0,55,0.00,,,0.00,VWS V14.01,2013-04-14 20:43:00,
2013-04-14 16:48:00,61.7,47.2,29.84,SE,128,0.0,10.0,59,0.00,,,0.00,VWS V14.01,2013-04-14 20:48:00,
2013-04-14 16:53:00,62.6,47.2,29.83,SSE,161,2.0,10.0,57,0.00,,,0.00,VWS V14.01,2013-04-14 20:53:00,
2013-04-14 16:58:00,62.6,47.6,29.84,SE,146,7.0,8.0,58,0.00,,,0.00,VWS V14.01,2013-04-14 20:58:00,
2013-04-14 17:03:00,62.7,47.3,29.84,SSW,192,4.0,8.0,57,0.00,,,0.00,VWS V14.01,2013-04-14 21:03:00,
2013-04-14 17:08:00,62.3,46.9,29.84,SW,230,1.0,9.0,57,0.00,,,0.00,VWS V14.01,2013-04-14 21:08:00,
2013-04-14 17:13:00,62.4,47.5,29.84,SSW,211,1.0,10.0,58,0.00,,,0.00,VWS V14.01,2013-04-14 21:13:00,
2013-04-14 17:18:00,62.2,46.3,29.83,ENE,73,5.0,10.0,56,0.00,,,0.00,VWS V14.01,2013-04-14 21:18:00,
2013-04-14 17:23:00,61.9,47.0,29.83,South,180,8.0,11.0,58,0.00,,,0.00,VWS V14.01,2013-04-14 21:23:00,
2013-04-14 17:28:00,61.8,46.9,29.83,ESE,115,4.0,11.0,58,0.00,,,0.00,VWS V14.01,2013-04-14 21:28:00,
2013-04-14 17:33:00,62.0,47.1,29.83,East,86,1.0,11.0,58,0.00,,,0.00,VWS V14.01,2013-04-14 21:33:00,
2013-04-14 17:38:00,62.3,47.8,29.83,NE,55,3.0,10.0,59,0.00,,,0.00,VWS V14.01,2013-04-14 21:38:00,
2013-04-14 17:43:00,62.3,48.2,29.83,SSW,209,4.0,7.0,60,0.00,,,0.00,VWS V14.01,2013-04-14 21:43:00,
2013-04-14 17:48:00,62.3,47.3,29.83,NE,48,3.0,7.0,58,0.00,,,0.00,VWS V14.01,2013-04-14 21:48:00,
2013-04-14 17:53:00,62.4,48.3,29.83,South,171,1.0,7.0,60,0.00,,,0.00,VWS V14.01,2013-04-14 21:53:00,
2013-04-14 17:58:00,62.5,47.5,29.83,SSE,167,2.0,7.0,58,0.00,,,0.00,VWS V14.01,2013-04-14 21:58:00,
2013-04-14 18:03:00,62.3,48.2,29.83,SW,214,6.0,10.0,60,0.00,,,0.00,VWS V14.01,2013-04-14 22:03:00,
2013-04-14 18:08:00,62.2,48.2,29.83,ESE,108,2.0,10.0,60,0.00,,,0.00,VWS V14.01,2013-04-14 22:08:00,
2013-04-14 18:13:00,62.1,48.1,29.82,SE,136,1.0,8.0,60,0.00,,,0.00,VWS V14.01,2013-04-14 22:13:00,
2013-04-14 18:18:00,61.9,47.9,29.82,ENE,59,0.0,8.0,60,0.00,,,0.00,VWS V14.01,2013-04-14 22:18:00,
2013-04-14 18:23:00,61.8,47.8,29.82,SSW,213,5.0,8.0,60,0.00,,,0.00,VWS V14.01,2013-04-14 22:23:00,
2013-04-14 18:28:00,61.6,47.6,29.82,WSW,252,1.0,10.0,60,0.00,,,0.00,VWS V14.01,2013-04-14 22:28:00,
2013-04-14 18:33:00,61.4,47.8,29.82,SE,142,5.0,11.0,61,0.00,,,0.00,VWS V14.01,2013-04-14 22:33:00,
2013-04-14 18:38:00,61.3,47.8,29.82,SE,144,0.0,11.0,61,0.00,,,0.00,VWS V14.01,2013-04-14 22:38:00,
2013-04-14 18:43:00,61.2,47.7,29.83,SSW,194,7.0,11.0,61,0.00,,,0.00,VWS V14.01,2013-04-14 22:43:00,
2013-04-14 18:48:00,60.9,48.2,29.82,NE,49,0.0,11.0,63,0.00,,,0.00,VWS V14.01,2013-04-14 22:48:00,
2013-04-14 18:53:00,60.8,47.7,29.82,ESE,117,0.0,11.0,62,0.00,,,0.00,VWS V14.01,2013-04-14 22:53:00,
2013-04-14 18:58:00,60.7,48.0,29.82,SW,222,1.0,11.0,63,0.00,,,0.00,VWS V14.01,2013-04-14 22:58:00,
2013-04-14 19:03:00,60.5,47.9,29.81,ESE,116,3.0,11.0,63,0.00,,,0.00,VWS V14.01,2013-04-14 23:03:00,
2013-04-14 19:08:00,60.4,48.2,29.81,SW,236,0.0,10.0,64,0.00,,,0.00,VWS V14.01,2013-04-14 23:08:00,
2013-04-14 19:13:00,60.2,48.0,29.80,SSE,148,3.0,10.0,64,0.00,,,0.00,VWS V14.01,2013-04-14 23:13:00,
2013-04-14 19:18:00,60.0,47.8,29.80,SE,132,5.0,12.0,64,0.00,,,0.00,VWS V14.01,2013-04-14 23:18:00,
2013-04-14 19:23:00,59.9,48.1,29.80,SSW,213,0.0,12.0,65,0.00,,,0.00,VWS V14.01,2013-04-14 23:23:00,
2013-04-14 19:28:00,59.7,48.3,29.80,North,5,0.0,12.0,66,0.00,,,0.00,VWS V14.01,2013-04-14 23:28:00,
2013-04-14 19:33:00,59.5,48.2,29.80,South,170,2.0,8.0,66,0.00,,,0.00,VWS V14.01,2013-04-14 23:33:00,
2013-04-14 19:38:00,59.3,48.0,29.80,ESE,111,0.0,8.0,66,0.00,,,0.00,VWS V14.01,2013-04-14 23:38:00,
2013-04-14 19:43:00,59.0,47.7,29.80,SSW,210,2.0,7.0,66,0.00,,,0.00,VWS V14.01,2013-04-14 23:43:00,
2013-04-14 19:48:00,58.8,47.9,29.80,SSE,154,0.0,7.0,67,0.00,,,0.00,VWS V14.01,2013-04-14 23:48:00,
2013-04-14 19:53:00,58.5,48.0,29.80,SSE,148,2.0,9.0,68,0.00,,,0.00,VWS V14.01,2013-04-14 23:53:00,
2013-04-14 19:58:00,58.3,47.8,29.80,SE,143,0.0,9.0,68,0.00,,,0.00,VWS V14.01,2013-04-14 23:58:00,
2013-04-14 20:03:00,58.0,47.5,29.80,South,169,3.0,7.0,68,0.00,,,0.00,VWS V14.01,2013-04-15 00:03:00,
2013-04-14 20:08:00,57.8,47.7,29.80,ESE,109,0.0,9.0,69,0.00,,,0.00,VWS V14.01,2013-04-15 00:08:00,
2013-04-14 20:13:00,57.6,47.5,29.80,SE,135,0.0,9.0,69,0.00,,,0.00,VWS V14.01,2013-04-15 00:13:00,
2013-04-14 20:18:00,57.4,47.3,29.80,ESE,102,2.0,8.0,69,0.00,,,0.00,VWS V14.01,2013-04-15 00:18:00,
2013-04-14 20:23:00,57.2,47.5,29.80,SE,129,2.0,7.0,70,0.00,,,0.00,VWS V14.01,2013-04-15 00:23:00,
2013-04-14 20:28:00,57.1,47.8,29.80,North,349,0.0,7.0,71,0.00,,,0.00,VWS V14.01,2013-04-15 00:28:00,
2013-04-14 20:33:00,56.9,47.6,29.80,ESE,119,1.0,7.0,71,0.00,,,0.00,VWS V14.01,2013-04-15 00:33:00,
2013-04-14 20:38:00,56.6,47.3,29.80,South,176,0.0,7.0,71,0.00,,,0.00,VWS V14.01,2013-04-15 00:38:00,
2013-04-14 20:43:00,56.4,47.5,29.80,SE,144,1.0,7.0,72,0.00,,,0.00,VWS V14.01,2013-04-15 00:43:00,
2013-04-14 20:48:00,56.2,47.3,29.80,SSW,194,2.0,7.0,72,0.00,,,0.00,VWS V14.01,2013-04-15 00:48:00,
2013-04-14 20:53:00,56.0,47.5,29.80,ENE,71,1.0,7.0,73,0.00,,,0.00,VWS V14.01,2013-04-15 00:53:00,
2013-04-14 20:58:00,55.8,47.3,29.80,SW,233,2.0,7.0,73,0.00,,,0.00,VWS V14.01,2013-04-15 00:58:00,
2013-04-14 21:03:00,55.5,47.4,29.80,South,175,5.0,7.0,74,0.00,,,0.00,VWS V14.01,2013-04-15 01:03:00,
2013-04-14 21:08:00,55.4,47.3,29.80,SSE,165,1.0,8.0,74,0.00,,,0.00,VWS V14.01,2013-04-15 01:08:00,
2013-04-14 21:13:00,55.2,47.1,29.79,SSW,200,0.0,8.0,74,0.00,,,0.00,VWS V14.01,2013-04-15 01:13:00,
2013-04-14 21:18:00,55.0,47.2,29.80,South,169,0.0,7.0,75,0.00,,,0.00,VWS V14.01,2013-04-15 01:18:00,
2013-04-14 21:23:00,54.8,47.0,29.80,ESE,105,8.0,8.0,75,0.00,,,0.00,VWS V14.01,2013-04-15 01:23:00,
2013-04-14 21:28:00,54.7,46.9,29.80,East,99,0.0,8.0,75,0.00,,,0.00,VWS V14.01,2013-04-15 01:28:00,
2013-04-14 21:33:00,54.5,46.8,29.80,SE,143,0.0,8.0,75,0.00,,,0.00,VWS V14.01,2013-04-15 01:33:00,
2013-04-14 21:38:00,54.3,46.9,29.80,SSE,161,3.0,7.0,76,0.00,,,0.00,VWS V14.01,2013-04-15 01:38:00,
2013-04-14 21:43:00,54.2,46.8,29.80,SE,139,1.0,8.0,76,0.00,,,0.00,VWS V14.01,2013-04-15 01:43:00,
2013-04-14 21:48:00,54.1,46.7,29.79,SE,145,0.0,8.0,76,0.00,,,0.00,VWS V14.01,2013-04-15 01:48:00,
2013-04-14 21:53:00,54.0,46.6,29.79,South,182,0.0,8.0,76,0.00,,,0.00,VWS V14.01,2013-04-15 01:53:00,
2013-04-14 21:58:00,53.9,46.5,29.79,SW,218,0.0,5.0,76,0.00,,,0.00,VWS V14.01,2013-04-15 01:58:00,
2013-04-14 22:03:00,53.9,46.9,29.80,SE,130,0.0,12.0,77,0.00,,,0.00,VWS V14.01,2013-04-15 02:03:00,
2013-04-14 22:08:00,53.7,46.7,29.79,SW,229,1.0,12.0,77,0.00,,,0.00,VWS V14.01,2013-04-15 02:08:00,
2013-04-14 22:13:00,53.7,46.7,29.79,ENE,62,2.0,7.0,77,0.00,,,0.00,VWS V14.01,2013-04-15 02:13:00,
2013-04-14 22:18:00,53.7,46.7,29.80,SE,140,0.0,7.0,77,0.00,,,0.00,VWS V14.01,2013-04-15 02:18:00,
2013-04-14 22:23:00,53.6,46.6,29.80,West,273,0.0,7.0,77,0.00,,,0.00,VWS V14.01,2013-04-15 02:23:00,
2013-04-14 22:28:00,53.7,46.7,29.80,SE,125,5.0,7.0,77,0.00,,,0.00,VWS V14.01,2013-04-15 02:28:00,
2013-04-14 22:33:00,53.8,46.8,29.80,South,185,1.0,10.0,77,0.00,,,0.00,VWS V14.01,2013-04-15 02:33:00,
2013-04-14 22:38:00,53.9,46.5,29.80,ENE,67,0.0,11.0,76,0.00,,,0.00,VWS V14.01,2013-04-15 02:38:00,
2013-04-14 22:43:00,53.9,46.5,29.79,SE,134,0.0,11.0,76,0.00,,,0.00,VWS V14.01,2013-04-15 02:43:00,
2013-04-14 22:48:00,53.7,46.3,29.79,SE,127,0.0,5.0,76,0.00,,,0.00,VWS V14.01,2013-04-15 02:48:00,
2013-04-14 22:53:00,53.6,46.6,29.79,ENE,64,3.0,9.0,77,0.00,,,0.00,VWS V14.01,2013-04-15 02:53:00,
2013-04-14 22:58:00,53.6,46.6,29.79,ENE,63,0.0,9.0,77,0.00,,,0.00,VWS V14.01,2013-04-15 02:58:00,
2013-04-14 23:03:00,53.5,46.5,29.79,NNE,31,1.0,8.0,77,0.00,,,0.00,VWS V14.01,2013-04-15 03:03:00,
2013-04-14 23:08:00,53.4,46.4,29.79,SE,141,0.0,8.0,77,0.00,,,0.00,VWS V14.01,2013-04-15 03:08:00,
2013-04-14 23:13:00,53.3,46.3,29.79,SSW,193,1.0,6.0,77,0.00,,,0.00,VWS V14.01,2013-04-15 03:13:00,
2013-04-14 23:18:00,53.2,46.2,29.78,South,173,6.0,7.0,77,0.00,,,0.00,VWS V14.01,2013-04-15 03:18:00,
2013-04-14 23:23:00,53.2,46.5,29.78,SW,224,2.0,7.0,78,0.00,,,0.00,VWS V14.01,2013-04-15 03:23:00,
2013-04-14 23:28:00,53.1,46.1,29.78,SSW,194,0.0,7.0,77,0.00,,,0.00,VWS V14.01,2013-04-15 03:28:00,
2013-04-14 23:33:00,53.1,46.4,29.78,SSW,198,0.0,5.0,78,0.00,,,0.00,VWS V14.01,2013-04-15 03:33:00,
2013-04-14 23:38:00,53.0,46.3,29.78,NW,314,1.0,6.0,78,0.00,,,0.00,VWS V14.01,2013-04-15 03:38:00,
2013-04-14 23:42:00,53.0,46.3,29.78,SSE,147,0.0,6.0,78,0.00,,,0.00,VWS V14.01,2013-04-15 03:42:00,
2013-04-14 23:47:00,53.0,46.3,29.78,West,278,0.0,6.0,78,0.00,,,0.00,VWS V14.01,2013-04-15 03:47:00,
2013-04-14 23:53:00,53.0,46.3,29.78,ESE,113,1.0,6.0,78,0.00,,,0.00,VWS V14.01,2013-04-15 03:53:00,
2013-04-14 23:58:00,53.1,46.4,29.78,SW,231,7.0,8.0,78,0.00,,,0.00,VWS V14.01,2013-04-15 03:58:00,